Location: Unspecified
(0.0000°N, 0.0000°E)
Time: 03:09:30
(UTC+00:00)

N. Korean satellite - Pass Details

Date: 23 February 2021
Orbit: 451 x 503 km, 97.2° (Epoch: 24 February)

Event Time Altitude Azimuth Distance (km) Brightness Sun altitude
Rises 04:29:42 0° 31° (NNE) 2,512 10.4 -25.5°
Reaches altitude 10° 04:31:59 10° 46° (NE) 1,647 9.7 -25.0°
Maximum altitude 04:34:55 24° 101° (ESE) 1,029 8.9 -24.2°
Drops below altitude 10° 04:37:54 10° 157° (SSE) 1,678 9.7 -23.5°
Sets 04:40:15 0° 171° (S) 2,571 10.5 -22.9°
